| time (UTC) | temp F | wind direction | speed MPH | gust MPH | rain 1hr in | rain 24hr in | rain mn in | humidity % | barometer mb |
| 20260508184537 | 70 | 178 | 3.0 | 8.0 | 0.00 | 0.00 | 0.00 | 42 | 1015.8 |
| 20260508183049 | 70 | 246 | 3.0 | 10.0 | 0.00 | 0.00 | 0.00 | 42 | 1015.9 |
| 20260508181542 | 68 | 173 | 2.0 | 10.0 | 0.00 | 0.00 | 0.00 | 42 | 1016.2 |
| 20260508180040 | 72 | 115 | 2.0 | 9.0 | 0.00 | 0.00 | 0.00 | 35 | 1016.3 |
| 20260508174557 | 73 | 202 | 2.0 | 7.0 | 0.00 | 0.00 | 0.00 | 34 | 1016.4 |
| 20260508173046 | 72 | 241 | 2.0 | 10.0 | 0.00 | 0.00 | 0.00 | 35 | 1016.7 |
| 20260508171543 | 72 | 25 | 2.0 | 6.0 | 0.00 | 0.00 | 0.00 | 35 | 1016.8 |
| 20260508170040 | 71 | 298 | 2.0 | 8.0 | 0.00 | 0.00 | 0.00 | 36 | 1017.2 |
| 20260508164546 | 72 | 247 | 3.0 | 10.0 | 0.00 | 0.00 | 0.00 | 35 | 1017.5 |
| 20260508163106 | 72 | 263 | 3.0 | 8.0 | 0.00 | 0.00 | 0.00 | 33 | 1017.8 |
| 20260508161537 | 69 | 235 | 2.0 | 8.0 | 0.00 | 0.00 | 0.00 | 39 | 1017.9 |
| 20260508160040 | 69 | 0 | 3.0 | 10.0 | 0.00 | 0.00 | 0.00 | 38 | 1018.2 |
| 20260508154545 | 69 | 15 | 2.0 | 8.0 | 0.00 | 0.00 | 0.00 | 38 | 1018.5 |
| 20260508153041 | 68 | 244 | 1.0 | 4.0 | 0.00 | 0.00 | 0.00 | 40 | 1018.4 |
| 20260508151541 | 68 | 259 | 1.0 | 7.0 | 0.00 | 0.00 | 0.00 | 40 | 1018.4 |
| 20260508150036 | 66 | 265 | 2.0 | 8.0 | 0.00 | 0.00 | 0.00 | 42 | 1018.5 |
| 20260508144537 | 64 | 0 | 3.0 | 7.0 | 0.00 | 0.00 | 0.00 | 46 | 1018.5 |
| 20260508143041 | 66 | 223 | 0.0 | 4.0 | 0.00 | 0.00 | 0.00 | 44 | 1018.5 |
| 20260508141541 | 65 | 350 | 1.0 | 3.0 | 0.00 | 0.00 | 0.00 | 46 | 1018.6 |
| 20260508140040 | 63 | 58 | 1.0 | 4.0 | 0.00 | 0.00 | 0.00 | 48 | 1018.8 |
| 20260508134541 | 62 | 82 | 0.0 | 5.0 | 0.00 | 0.00 | 0.00 | 51 | 1018.7 |
| 20260508133039 | 60 | 0 | 1.0 | 5.0 | 0.00 | 0.00 | 0.00 | 52 | 1018.7 |
| 20260508131550 | 61 | 336 | 1.0 | 3.0 | 0.00 | 0.00 | 0.00 | 52 | 1018.7 |
| 20260508130052 | 59 | 256 | 0.0 | 3.0 | 0.00 | 0.00 | 0.00 | 62 | 1018.4 |
| 20260508124539 | 56 | 0 | 0.0 | 2.0 | 0.00 | 0.05 | 0.00 | 71 | 1018.4 |
| 20260508123038 | 54 | 0 | 0.0 | 1.0 | 0.00 | 0.05 | 0.00 | 77 | 1018.2 |
| 20260508121549 | 52 | 0 | 0.0 | 0.0 | 0.00 | 0.05 | 0.00 | 80 | 1018.2 |
| 20260508120043 | 51 | 0 | 0.0 | 1.0 | 0.00 | 0.05 | 0.00 | 81 | 1018.1 |
| 20260508114541 | 49 | 0 | 0.0 | 0.0 | 0.00 | 0.12 | 0.00 | 87 | 1017.9 |
| 20260508113049 | 47 | 0 | 0.0 | 0.0 | 0.00 | 0.12 | 0.00 | 91 | 1017.7 |
| 20260508111537 | 45 | 0 | 0.0 | 0.0 | 0.00 | 0.12 | 0.00 | 91 | 1017.3 |
| 20260508110054 | 45 | 0 | 0.0 | 0.0 | 0.00 | 0.12 | 0.00 | 90 | 1017.2 |
| 20260508104540 | 46 | 0 | 0.0 | 0.0 | 0.00 | 0.14 | 0.00 | 90 | 1017.0 |
| 20260508103042 | 46 | 0 | 0.0 | 0.0 | 0.00 | 0.14 | 0.00 | 90 | 1016.5 |
| 20260508101549 | 46 | 0 | 0.0 | 0.0 | 0.00 | 0.14 | 0.00 | 90 | 1016.1 |
| 20260508100040 | 46 | 0 | 0.0 | 0.0 | 0.00 | 0.14 | 0.00 | 90 | 1016.0 |
| 20260508094540 | 46 | 0 | 0.0 | 0.0 | 0.00 | 0.14 | 0.00 | 89 | 1015.9 |
| 20260508093052 | 47 | 0 | 0.0 | 0.0 | 0.00 | 0.14 | 0.00 | 90 | 1015.9 |
| 20260508091541 | 47 | 0 | 0.0 | 0.0 | 0.00 | 0.14 | 0.00 | 89 | 1015.8 |
| 20260508084540 | 48 | 0 | 0.0 | 3.0 | 0.00 | 0.15 | 0.00 | 88 | 1015.6 |
| 20260508083036 | 48 | 301 | 0.0 | 3.0 | 0.00 | 0.15 | 0.00 | 88 | 1015.7 |
| 20260508081536 | 48 | 0 | 0.0 | 2.0 | 0.00 | 0.15 | 0.00 | 87 | 1015.4 |
| 20260508080041 | 49 | 0 | 0.0 | 2.0 | 0.00 | 0.15 | 0.00 | 88 | 1015.3 |
| 20260508074542 | 49 | 0 | 0.0 | 1.0 | 0.00 | 0.15 | 0.00 | 87 | 1015.3 |
| 20260508073040 | 49 | 296 | 0.0 | 3.0 | 0.00 | 0.15 | 0.00 | 87 | 1015.2 |
| 20260508071534 | 50 | 0 | 0.0 | 0.0 | 0.00 | 0.15 | 0.00 | 85 | 1015.3 |
| 20260508070044 | 50 | 0 | 0.0 | 0.0 | 0.00 | 0.15 | 0.00 | 85 | 1015.1 |
| 20260508064540 | 50 | 0 | 0.0 | 0.0 | 0.00 | 0.15 | 0.00 | 84 | 1015.0 |
| 20260508063039 | 50 | 0 | 0.0 | 0.0 | 0.00 | 0.15 | 0.00 | 84 | 1015.0 |
| 20260508061536 | 51 | 0 | 0.0 | 0.0 | 0.00 | 0.15 | 0.00 | 83 | 1014.9 |
| 20260508060040 | 50 | 0 | 0.0 | 0.0 | 0.00 | 0.15 | 0.00 | 83 | 1014.9 |
| 20260508054604 | 51 | 0 | 0.0 | 0.0 | 0.00 | 0.20 | 0.00 | 81 | 1015.0 |
| 20260508053042 | 52 | 0 | 0.0 | 0.0 | 0.00 | 0.20 | 0.00 | 80 | 1015.0 |
| 20260508051540 | 52 | 0 | 0.0 | 1.0 | 0.00 | 0.20 | 0.00 | 78 | 1014.9 |
| 20260508050041 | 53 | 0 | 0.0 | 4.0 | 0.00 | 0.20 | 0.00 | 76 | 1014.9 |
| 20260508044553 | 54 | 0 | 0.0 | 0.0 | 0.00 | 0.22 | 0.00 | 75 | 1014.4 |
| 20260508043044 | 54 | 0 | 0.0 | 0.0 | 0.00 | 0.22 | 0.00 | 73 | 1014.6 |
| 20260508041550 | 55 | 0 | 0.0 | 0.0 | 0.00 | 0.22 | 0.00 | 73 | 1014.4 |
| 20260508040045 | 56 | 0 | 0.0 | 1.0 | 0.00 | 0.22 | 0.00 | 70 | 1014.3 |
| 20260508034541 | 57 | 0 | 0.0 | 3.0 | 0.00 | 0.23 | 0.22 | 67 | 1014.3 |
| 20260508033037 | 57 | 355 | 4.0 | 9.0 | 0.00 | 0.23 | 0.22 | 66 | 1014.4 |
| 20260508031536 | 57 | 28 | 3.0 | 10.0 | 0.00 | 0.23 | 0.22 | 66 | 1014.3 |
| 20260508030054 | 57 | 342 | 6.0 | 13.0 | 0.00 | 0.23 | 0.22 | 65 | 1014.2 |
| 20260508024541 | 57 | 341 | 7.0 | 15.0 | 0.00 | 0.25 | 0.22 | 65 | 1014.0 |
| 20260508023045 | 57 | 315 | 5.0 | 9.0 | 0.00 | 0.25 | 0.22 | 64 | 1013.7 |
| 20260508021537 | 58 | 309 | 5.0 | 12.0 | 0.00 | 0.25 | 0.22 | 63 | 1013.6 |
| 20260508020041 | 58 | 294 | 7.0 | 15.0 | 0.00 | 0.25 | 0.22 | 62 | 1013.5 |
| 20260508014540 | 58 | 342 | 9.0 | 15.0 | 0.00 | 0.29 | 0.22 | 63 | 1013.1 |
| 20260508013039 | 58 | 321 | 7.0 | 11.0 | 0.00 | 0.29 | 0.22 | 62 | 1013.0 |
| 20260508011540 | 58 | 309 | 6.0 | 11.0 | 0.00 | 0.29 | 0.22 | 62 | 1013.0 |
| 20260508010041 | 59 | 323 | 5.0 | 10.0 | 0.00 | 0.29 | 0.22 | 62 | 1012.6 |
| 20260508004541 | 59 | 343 | 5.0 | 12.0 | 0.00 | 0.37 | 0.22 | 60 | 1012.7 |
| 20260508003039 | 60 | 360 | 3.0 | 11.0 | 0.00 | 0.37 | 0.22 | 60 | 1012.2 |
| 20260508001542 | 60 | 346 | 6.0 | 11.0 | 0.00 | 0.37 | 0.22 | 59 | 1012.0 |
| 20260508000035 | 61 | 355 | 7.0 | 15.0 | 0.00 | 0.37 | 0.22 | 60 | 1011.8 |
| 20260507234542 | 62 | 360 | 7.0 | 14.0 | 0.00 | 0.37 | 0.22 | 60 | 1012.0 |
| 20260507233042 | 63 | 320 | 7.0 | 15.0 | 0.00 | 0.37 | 0.22 | 60 | 1011.5 |
| 20260507231550 | 64 | 5 | 4.0 | 14.0 | 0.00 | 0.37 | 0.22 | 59 | 1011.5 |
| 20260507230041 | 66 | 342 | 4.0 | 12.0 | 0.00 | 0.37 | 0.22 | 58 | 1011.1 |
| 20260507224554 | 67 | 335 | 6.0 | 12.0 | 0.00 | 0.38 | 0.22 | 57 | 1010.9 |
| 20260507223043 | 70 | 333 | 7.0 | 17.0 | 0.00 | 0.38 | 0.22 | 54 | 1010.4 |
| 20260507221543 | 73 | 355 | 8.0 | 16.0 | 0.00 | 0.38 | 0.22 | 50 | 1010.0 |
| 20260507220040 | 74 | 335 | 6.0 | 13.0 | 0.00 | 0.38 | 0.22 | 51 | 1009.6 |
| 20260507214541 | 74 | 342 | 8.0 | 13.0 | 0.00 | 0.38 | 0.22 | 51 | 1009.3 |
| 20260507213047 | 75 | 323 | 5.0 | 11.0 | 0.00 | 0.38 | 0.22 | 52 | 1009.1 |
| 20260507211535 | 75 | 284 | 6.0 | 14.0 | 0.00 | 0.38 | 0.22 | 52 | 1008.7 |
| 20260507210107 | 76 | 343 | 7.0 | 15.0 | 0.00 | 0.38 | 0.22 | 51 | 1008.7 |
| 20260507204540 | 76 | 330 | 6.0 | 16.0 | 0.00 | 0.38 | 0.22 | 53 | 1008.5 |
| 20260507203040 | 77 | 5 | 8.0 | 15.0 | 0.00 | 0.38 | 0.22 | 51 | 1008.2 |
| 20260507201539 | 78 | 254 | 8.0 | 15.0 | 0.00 | 0.38 | 0.22 | 48 | 1008.2 |
| 20260507200050 | 81 | 281 | 2.0 | 12.0 | 0.00 | 0.38 | 0.22 | 48 | 1007.9 |
| 20260507194542 | 80 | 203 | 5.0 | 11.0 | 0.00 | 0.38 | 0.22 | 48 | 1007.9 |
| 20260507193105 | 80 | 316 | 2.0 | 10.0 | 0.00 | 0.38 | 0.22 | 51 | 1008.1 |
| 20260507191550 | 80 | 288 | 4.0 | 13.0 | 0.00 | 0.38 | 0.22 | 49 | 1008.1 |
| 20260507190041 | 79 | 257 | 3.0 | 8.0 | 0.00 | 0.38 | 0.22 | 58 | 1008.0 |